When you browse on this site, cookies collect data to enhance your experience and personalize the content and advertising you see.
Visit our Privacy Policy to learn more. By continuing to use the site, you agree to this use of cookies and data.
  • Em Portugal
  • Lista de países
  • Para 7 dias
  • Temperatura da água
  • Mapas de satélite
  • Mapa do tempo
  • Widgets de tempo
  • user-avatar
    Iniciar Sessão

    Previsão horária em Pstraze

    Hoje, 21 Janeiro, Segunda-feira

    Tempo Temperatura Precipitação Vento Pressão Humidade
    00:00 -4°C° 0 mm 0 m/s 753 mmHg 66%
    01:00 -4°C° 0 mm 0 m/s 753 mmHg 67%
    02:00 -4°C° 0 mm 0 m/s 753 mmHg 67%
    03:00 -4°C° 0 mm 0 m/s 753 mmHg 68%
    04:00 -4°C° 0 mm 0 m/s 753 mmHg 68%
    05:00 -5°C° 0 mm 0 m/s 753 mmHg 68%
    06:00 -5°C° 0 mm 0 m/s 753 mmHg 68%
    07:00 -5°C° 0 mm 0 m/s 753 mmHg 68%
    08:00 -4°C° 0 mm 0 m/s 753 mmHg 63%
    09:00 -3°C° 0 mm 0 m/s 753 mmHg 59%
    10:00 -2°C° 0 mm 1 m/s 754 mmHg 54%
    11:00 -1°C° 0 mm 1 m/s 753 mmHg 50%
    12:00 0°C° 0 mm 1 m/s 753 mmHg 45%
    13:00 +1°C° 0 mm 1 m/s 753 mmHg 41%
    14:00 0°C° 0 mm 0 m/s 752 mmHg 43%
    15:00 -1°C° 0 mm 0 m/s 752 mmHg 45%
    16:00 -1°C° 0 mm 0 m/s 752 mmHg 47%
    17:00 -2°C° 0 mm 0 m/s 751 mmHg 49%
    18:00 -1°C° 0 mm 1 m/s 751 mmHg 51%
    19:00 -2°C° 0 mm 1 m/s 751 mmHg 53%
    20:00 -2°C° 0 mm 1 m/s 751 mmHg 55%
    21:00 -2°C° 0 mm 1 m/s 751 mmHg 56%
    22:00 -2°C° 0 mm 1 m/s 750 mmHg 58%
    23:00 -2°C° 0 mm 1 m/s 750 mmHg 58%

    Amanhã, 22 Janeiro, Terça-feira

    Tempo Temperatura Precipitação Vento Pressão Humidade
    00:00 -2°C° 0 mm 1 m/s 750 mmHg 57%
    01:00 -2°C° 0 mm 1 m/s 749 mmHg 57%
    02:00 -2°C° 0 mm 1 m/s 749 mmHg 59%
    03:00 -2°C° 0 mm 1 m/s 749 mmHg 60%
    04:00 -3°C° 0 mm 1 m/s 748 mmHg 61%
    05:00 -3°C° 0 mm 1 m/s 748 mmHg 63%
    06:00 -3°C° 0 mm 1 m/s 748 mmHg 65%
    07:00 -3°C° 0 mm 1 m/s 747 mmHg 67%
    08:00 -2°C° 0 mm 1 m/s 747 mmHg 63%
    09:00 -2°C° 0 mm 1 m/s 747 mmHg 60%
    10:00 -1°C° 0 mm 1 m/s 747 mmHg 57%
    11:00 0°C° 0 mm 1 m/s 746 mmHg 53%
    12:00 +1°C° 0 mm 1 m/s 746 mmHg 49%
    13:00 +2°C° 0 mm 1 m/s 745 mmHg 45%
    14:00 +1°C° 0 mm 1 m/s 745 mmHg 48%
    15:00 +1°C° 0 mm 1 m/s 744 mmHg 50%
    16:00 -2°C° 0 mm 2 m/s 744 mmHg 52%
    17:00 -3°C° 0 mm 2 m/s 743 mmHg 55%
    18:00 -3°C° 0 mm 2 m/s 743 mmHg 58%
    19:00 -4°C° 0 mm 2 m/s 743 mmHg 61%
    20:00 -4°C° 0 mm 2 m/s 743 mmHg 61%
    21:00 -4°C° 0 mm 2 m/s 742 mmHg 60%
    22:00 -4°C° 0 mm 2 m/s 742 mmHg 60%
    23:00 -4°C° 0 mm 2 m/s 742 mmHg 59%

    Depois de amanhã, 23 Janeiro, Quarta-feira

    Tempo Temperatura Precipitação Vento Pressão Humidade
    00:00 -5°C° 0 mm 2 m/s 741 mmHg 59%
    01:00 -5°C° 0 mm 2 m/s 741 mmHg 59%
    02:00 -5°C° 0 mm 2 m/s 741 mmHg 60%
    03:00 -5°C° 0 mm 2 m/s 740 mmHg 61%
    04:00 -5°C° 0 mm 2 m/s 740 mmHg 63%
    05:00 -6°C° 0 mm 3 m/s 740 mmHg 65%
    06:00 -6°C° 0 mm 3 m/s 740 mmHg 68%
    07:00 -7°C° 0 mm 3 m/s 740 mmHg 71%
    08:00 -6°C° 0 mm 3 m/s 740 mmHg 69%
    09:00 -7°C° 0 mm 4 m/s 740 mmHg 66%
    10:00 -5°C° 0 mm 4 m/s 740 mmHg 64%
    11:00 -5°C° 0 mm 4 m/s 740 mmHg 62%
    12:00 -4°C° 0 mm 4 m/s 740 mmHg 59%
    13:00 -4°C° 0 mm 5 m/s 740 mmHg 57%
    14:00 -4°C° 0 mm 4 m/s 740 mmHg 60%
    15:00 -4°C° 0 mm 4 m/s 740 mmHg 63%
    16:00 -4°C° 0 mm 4 m/s 740 mmHg 67%
    17:00 -5°C° 0 mm 4 m/s 741 mmHg 70%
    18:00 -5°C° 0 mm 4 m/s 741 mmHg 74%
    19:00 -7°C° 0 mm 4 m/s 742 mmHg 77%
    20:00 -7°C° 0 mm 4 m/s 742 mmHg 77%
    21:00 -7°C° 0 mm 4 m/s 742 mmHg 78%
    22:00 -7°C° 0 mm 4 m/s 743 mmHg 78%
    23:00 -7°C° 0 mm 4 m/s 743 mmHg 78%

    24 Janeiro, Quinta-feira

    Tempo Temperatura Precipitação Vento Pressão Humidade
    00:00 -7°C° 0 mm 4 m/s 743 mmHg 78%
    01:00 -7°C° 0 mm 4 m/s 744 mmHg 79%
    02:00 -8°C° 0 mm 4 m/s 744 mmHg 79%
    03:00 -8°C° 0 mm 4 m/s 744 mmHg 79%
    04:00 -8°C° 0 mm 4 m/s 744 mmHg 79%
    05:00 -8°C° 0 mm 4 m/s 744 mmHg 78%
    06:00 -8°C° 0 mm 4 m/s 745 mmHg 78%
    07:00 -8°C° 0 mm 4 m/s 745 mmHg 78%
    08:00 -8°C° 0 mm 4 m/s 746 mmHg 75%
    09:00 -8°C° 0 mm 4 m/s 746 mmHg 72%
    10:00 -7°C° 0 mm 4 m/s 747 mmHg 69%
    11:00 -7°C° 0 mm 4 m/s 747 mmHg 66%
    12:00 -5°C° 0 mm 4 m/s 747 mmHg 63%
    13:00 -4°C° 0 mm 4 m/s 747 mmHg 60%
    14:00 -5°C° 0 mm 3 m/s 747 mmHg 62%
    15:00 -5°C° 0 mm 3 m/s 747 mmHg 63%
    16:00 -5°C° 0 mm 3 m/s 747 mmHg 64%
    17:00 -4°C° 0 mm 2 m/s 748 mmHg 67%
    18:00 -5°C° 0 mm 2 m/s 748 mmHg 70%
    19:00 -5°C° 0 mm 2 m/s 748 mmHg 73%
    20:00 -5°C° 0 mm 2 m/s 749 mmHg 75%
    21:00 -5°C° 0 mm 2 m/s 749 mmHg 76%
    22:00 -3°C° 0 mm 1 m/s 749 mmHg 78%
    23:00 -4°C° 0 mm 1 m/s 749 mmHg 79%

    25 Janeiro, Sexta-feira

    Tempo Temperatura Precipitação Vento Pressão Humidade
    00:00 -4°C° 0 mm 1 m/s 749 mmHg 80%
    01:00 -4°C° 0 mm 1 m/s 749 mmHg 82%
    02:00 -4°C° 0 mm 1 m/s 749 mmHg 82%
    03:00 -5°C° 0 mm 0 m/s 749 mmHg 82%
    04:00 -5°C° 0 mm 0 m/s 749 mmHg 82%
    05:00 -5°C° 0 mm 0 m/s 750 mmHg 82%
    06:00 -5°C° 0 mm 0 m/s 750 mmHg 81%
    07:00 -4°C° 0 mm 1 m/s 750 mmHg 81%
    08:00 -3°C° 0 mm 1 m/s 750 mmHg 79%
    09:00 -3°C° 0 mm 1 m/s 750 mmHg 77%
    10:00 -3°C° 0 mm 1 m/s 750 mmHg 75%
    11:00 -2°C° 0 mm 1 m/s 750 mmHg 71%
    12:00 -2°C° 0 mm 1 m/s 750 mmHg 67%
    13:00 -1°C° 0 mm 1 m/s 750 mmHg 63%
    14:00 -1°C° 0 mm 1 m/s 749 mmHg 63%
    15:00 -1°C° 0 mm 1 m/s 749 mmHg 63%
    16:00 -2°C° 0 mm 1 m/s 749 mmHg 63%
    17:00 -2°C° 0 mm 1 m/s 748 mmHg 65%
    18:00 -2°C° 0 mm 1 m/s 748 mmHg 67%
    19:00 -3°C° 0 mm 1 m/s 748 mmHg 69%
    20:00 -5°C° 0 mm 2 m/s 748 mmHg 67%
    21:00 -5°C° 0 mm 2 m/s 747 mmHg 66%
    22:00 -6°C° 0 mm 3 m/s 747 mmHg 64%
    23:00 -5°C° 0 mm 3 m/s 746 mmHg 60%

    26 Janeiro, Sábado

    Tempo Temperatura Precipitação Vento Pressão Humidade
    00:00 -5°C° 0 mm 3 m/s 745 mmHg 57%
    01:00 -4°C° 0 mm 3 m/s 745 mmHg 53%
    02:00 -4°C° 0.2 mm 3 m/s 744 mmHg 61%
    03:00 -4°C° 0.2 mm 4 m/s 743 mmHg 70%
    04:00 -3°C° 0.2 mm 4 m/s 743 mmHg 78%
    05:00 -3°C° 0.3 mm 4 m/s 742 mmHg 82%
    06:00 -2°C° 0.3 mm 5 m/s 742 mmHg 85%
    07:00 -2°C° 0.3 mm 5 m/s 742 mmHg 88%
    08:00 -1°C° 0.1 mm 5 m/s 742 mmHg 89%
    09:00 -1°C° 0.1 mm 5 m/s 742 mmHg 90%
    10:00 0°C° 0.1 mm 5 m/s 742 mmHg 90%
    11:00 0°C° 0 mm 4 m/s 742 mmHg 90%
    12:00 0°C° 0 mm 4 m/s 741 mmHg 89%
    13:00 +1°C° 0 mm 3 m/s 741 mmHg 88%
    14:00 +1°C° 0 mm 3 m/s 741 mmHg 89%
    15:00 +2°C° 0 mm 2 m/s 741 mmHg 91%
    16:00 +2°C° 0 mm 2 m/s 740 mmHg 92%
    17:00 +1°C° 0 mm 2 m/s 740 mmHg 92%
    18:00 +1°C° 0 mm 2 m/s 740 mmHg 92%
    19:00 +1°C° 0 mm 2 m/s 739 mmHg 93%
    20:00 +1°C° 0.1 mm 2 m/s 739 mmHg 92%
    21:00 +1°C° 0.1 mm 2 m/s 739 mmHg 92%
    22:00 +1°C° 0.1 mm 2 m/s 738 mmHg 92%
    23:00 +2°C° 0.1 mm 2 m/s 738 mmHg 91%
    Mostrar mais